Soldotna, AK

10:23 AM AKDT on October 20, 2017 (GMT -0800)
Soldotna

Weather History for PASX - January, 2011

Change the Weather History Date:

Monday, January 10, 2011

  Actual Average Record
Temperature  
Mean Temperature 6 °F -  
Max Temperature 10 °F 20 °F 42 °F (1955)
Min Temperature 1 °F 1 °F -43 °F (1972)
Degree Days  
Heating Degree Days 60    
Moisture  
Dew Point 2 °F    
Average Humidity 87    
Maximum Humidity 100    
Minimum Humidity 78    
Precipitation  
Precipitation 0.00 in - - ()
Sea Level Pressure  
Sea Level Pressure 30.62 in    
Wind  
Wind Speed 3 mph (East)    
Max Wind Speed 6 mph    
Max Gust Speed -    
Visibility 10 miles    
Events      
Averages and records for this station are not official NWS values.
T = Trace of Precipitation, MM = Missing Value Source: NWS Daily Summary

Daily Weather History Graph

Daily Weather History Graph

Search for Another Location

Airport or City:

Trip Planner

Search our weather history database for the weather conditions in past years. The results will help you decide how hot, cold, wet, or windy it might be!

Date:

Astronomy

Jan. 10, 2011 Rise Set
Actual Time 10:02 AM AKST 4:21 PM AKST
Civil Twilight 9:06 AM AKST 5:16 PM AKST
Nautical Twilight 8:10 AM AKST 6:12 PM AKST
Astronomical Twilight 7:19 AM AKST 7:04 PM AKST
Moon 11:03 AM AKST (1/10) No Moon Set
Length of Visible Light 8h 09m
Length of Day
6h 18m
Waxing Crescent, 35% of the Moon is Illuminated
Jan 10
Waxing Crescent
Jan 12
First Quarter
Jan 19
Full
Jan 26
Last Quarter
Feb 2
New

Hourly Weather History & Observations

Time (AKST) Temp. Windchill Dew Point Humidity Pressure Visibility Wind Dir Wind Speed Gust Speed Precip Events Conditions
12:56 AM 3.2 °F -4.2 °F -0.4 °F 85% 30.69 in 10.0 mi ESE 3.5 mph - N/A   Clear
1:56 AM 3.2 °F - -0.4 °F 85% 30.68 in 10.0 mi Calm Calm - N/A   Clear
2:56 AM 5.0 °F -4.1 °F 1.4 °F 85% 30.68 in 10.0 mi ENE 4.6 mph - N/A   Clear
3:56 AM 3.2 °F -4.2 °F 1.4 °F 92% 30.67 in 10.0 mi ENE 3.5 mph - N/A   Clear
4:56 AM 5.0 °F - 1.4 °F 85% 30.66 in 10.0 mi Calm Calm - N/A   Clear
5:56 AM 5.0 °F -5.6 °F 1.4 °F 85% 30.65 in 10.0 mi East 5.8 mph - N/A   Clear
6:56 AM 3.2 °F - 1.4 °F 92% 30.65 in 10.0 mi Calm Calm - N/A   Clear
7:56 AM 3.2 °F - -2.2 °F 78% 30.65 in 10.0 mi Calm Calm - N/A   Clear
8:56 AM 1.4 °F -6.2 °F -2.2 °F 85% 30.66 in 10.0 mi East 3.5 mph - N/A   Clear
9:56 AM 1.4 °F -6.2 °F -2.2 °F 85% 30.66 in 10.0 mi East 3.5 mph - N/A   Clear
11:56 AM 3.2 °F -6.2 °F 1.4 °F 92% 30.66 in 10.0 mi East 4.6 mph - N/A   Clear
12:56 PM 6.8 °F -0.1 °F 5.0 °F 92% 30.65 in 10.0 mi ESE 3.5 mph - N/A   Clear
1:56 PM 8.6 °F 0.1 °F 8.6 °F 100% 30.65 in 10.0 mi ESE 4.6 mph - N/A   Clear
2:56 PM 10.4 °F 2.2 °F 6.8 °F 85% 30.63 in 10.0 mi East 4.6 mph - N/A   Clear
3:56 PM 10.4 °F 4.0 °F 6.8 °F 85% 30.61 in 10.0 mi ESE 3.5 mph - N/A   Clear
4:56 PM 8.6 °F 2.0 °F 6.8 °F 92% 30.59 in 10.0 mi East 3.5 mph - N/A   Clear
5:56 PM 8.6 °F - 5.0 °F 85% 30.57 in 10.0 mi Calm Calm - N/A   Clear
6:56 PM 8.6 °F - 5.0 °F 85% 30.55 in 10.0 mi Calm Calm - N/A   Clear
7:56 PM 3.2 °F -6.2 °F 1.4 °F 92% 30.53 in 10.0 mi East 4.6 mph - N/A   Clear
8:56 PM 6.8 °F -0.1 °F 1.4 °F 79% 30.52 in 10.0 mi East 3.5 mph - N/A   Clear
9:56 PM 3.2 °F - 1.4 °F 92% 30.51 in 10.0 mi Calm Calm - N/A   Clear
10:56 PM 3.2 °F - -0.4 °F 85% 30.50 in 10.0 mi Calm Calm - N/A   Clear